Home > Weather > Sørumsand > Past weeks

Flag for Norway Past Weather in Sørumsand, Norway — Yesterday and Last 2 Weeks

Now
64 °F

Scattered clouds.


Feels Like: 64 °F
Forecast: 51 / 76 °F
Wind: 12 mph from Northeast

Location: Oslo Gardermoen Airport

Current Time: May 30, 2016 at 4:41:11 PM

Latest Report: May 30, 2016 at 3:50 PM


Visibility: N/A

Pressure: 30.15 "Hg

Humidity: 64%

Dew Point: 52 °F

Location of SørumsandLocation

Past Weather in Sørumsand — Graph

°F

Sørumsand Temperature Yesterday

Maximum temperature yesterday: 54 °F (at 12:20 AM)
Minimum temperature yesterday: 52 °F (at 2:20 AM)
Average temperature yesterday: 53 °F

High & Low Weather Summary for the Past Weeks

 TemperatureHumidityPressure
High66 °F (May 27, 3:20 PM)100% (May 22, 4:50 AM)30.21 "Hg (May 22, 4:50 AM)
Low34 °F (May 17, 3:20 AM)20% (May 16, 7:50 PM)29.62 "Hg (May 17, 3:50 PM)
Average53 °F67%29.92 "Hg
* Reported May 15 2:20 PM — May 30 2:50 PM, Sørumsand, Weather by CustomWeather, © 2016

Note: Actual official high and low records may vary slightly from our data, if they occured in-between our weather recording intervals... More about our weather records

Advertising

Sørumsand Weather History for the Previous 24 Hours

Scroll right to see more
 ConditionsComfort  
Time TempWeatherWind HumidityBarometerVisibility
2:50 PM
Mon, May 30
63 °FBroken clouds.13 mph73%30.18 "HgN/A
2:20 PM61 °FScattered clouds.12 mph77%30.18 "HgN/A
1:50 PM59 °FPartly sunny.9 mph82%30.18 "HgN/A
1:20 PM59 °FPartly sunny.13 mph82%30.18 "HgN/A
12:50 PM59 °FBroken clouds.12 mph82%30.18 "HgN/A
12:20 PM57 °FBroken clouds.10 mph88%30.21 "HgN/A
11:50 AM57 °FBroken clouds.10 mph88%30.21 "HgN/A
11:20 AM55 °FPartly sunny.10 mph94%30.21 "HgN/A
10:50 AM54 °FBroken clouds.10 mph94%30.21 "HgN/A
10:20 AM54 °FLight rain. Partly sunny.7 mph94%30.21 "HgN/A
9:50 AM54 °FLight rain. Partly sunny.5 mph94%30.21 "Hg5 mi
9:20 AM54 °FLight rain. Partly sunny.2 mph94%30.21 "HgN/A
8:50 AM54 °FLight rain. Partly sunny.6 mph88%30.21 "HgN/A
7:50 AM54 °FPartly sunny.6 mph94%30.18 "HgN/A
6:50 AM52 °FRain showers. Broken clouds.7 mph94%30.18 "HgN/A
6:20 AM54 °FRain showers. Partly sunny.9 mph94%30.18 "HgN/A
5:50 AM52 °FSprinkles. Partly sunny.7 mph94%30.18 "HgN/A
5:20 AM52 °FLight rain. Broken clouds.7 mph94%30.18 "HgN/A
4:50 AM54 °FLots of rain. Partly cloudy.5 mph94%30.18 "Hg6 mi
4:20 AM54 °FScattered showers. Passing clouds.5 mph94%30.18 "HgN/A
3:50 AM54 °FLight rain. Partly cloudy.5 mph94%30.18 "HgN/A
3:20 AM54 °FLight rain. Passing clouds.5 mph94%30.18 "HgN/A
2:50 AM54 °FLight rain. Passing clouds.7 mph94%30.18 "Hg6 mi
2:20 AM54 °FRain. Passing clouds.5 mph94%30.18 "Hg3 mi
1:50 AM54 °FLight rain. Passing clouds.6 mph94%30.18 "Hg5 mi
1:20 AM54 °FPassing clouds.6 mph94%30.18 "HgN/A
12:50 AM54 °FPassing clouds.6 mph94%30.18 "HgN/A
12:20 AM54 °FPassing clouds.6 mph94%30.18 "HgN/A
11:50 PM
Sun, May 29
54 °FPassing clouds.6 mph94%30.18 "HgN/A
11:20 PM54 °FPassing clouds.7 mph94%30.18 "HgN/A
10:50 PM54 °FScattered showers. Partly sunny.6 mph94%30.18 "HgN/A
10:20 PM54 °FLight rain. Broken clouds.7 mph94%30.18 "Hg5 mi
9:50 PM54 °FLight rain. Partly sunny.7 mph94%30.15 "Hg4 mi
9:20 PM54 °FLight rain. Partly sunny.6 mph94%30.15 "Hg4 mi
8:50 PM54 °FDrizzle. Partly sunny.6 mph94%30.15 "Hg6 mi
8:20 PM54 °FScattered showers. Partly sunny.6 mph94%30.15 "HgN/A
7:50 PM54 °FScattered showers. Partly sunny.7 mph94%30.15 "HgN/A
7:20 PM54 °FPartly sunny.7 mph94%30.15 "HgN/A
6:50 PM54 °FPartly sunny.8 mph94%30.15 "HgN/A
6:20 PM54 °FPartly sunny.8 mph94%30.15 "HgN/A
5:50 PM54 °FBroken clouds.8 mph94%30.15 "HgN/A
5:20 PM54 °FPartly sunny.6 mph94%30.15 "Hg6 mi
4:50 PM54 °FLight rain. Partly sunny.5 mph94%30.15 "HgN/A
4:20 PM54 °FScattered showers. Partly sunny.7 mph94%30.15 "HgN/A
Weather by CustomWeather, © 2016

See weather overviewHow to use our weather pages